User: anonymous   Login
Location: Unspecified
(0.0000°N, 0.0000°E)
Time: 09:48:02
(UTC+00:00)
Language:

Cosmos 1758 - Orbit

View from above orbital plane
View from above orbital plane
View from above satellite
View from above satellite

Ground track
Ground track

The orbit data is extracted from the following two-line orbital elements,

1 16791U 86046A   18175.70022158 -.00000049 +00000-0 -54804-5 0  9996
2 16791 082.4701 029.0548 0014937 259.5787 100.3756 15.04707205741413
Epoch (UTC): 24 June 2018 16:48:19
Eccentricity: 0.0014937
inclination: 82.4701°
perigee height: 542 km
apogee height: 563 km
right ascension of ascending node: 29.0548°
argument of perigee: 259.5787°
revolutions per day: 15.04707205
mean anomaly at epoch: 100.3756°
orbit number at epoch: 74141

The dashed part of the orbit path shows where the satellite is in the earth's shadow,  

DLR